Location: Unspecified
(0.0000°N, 0.0000°E)
Time: 13:35:53
(UTC+00:00)

deb OV3-4 - Pass Details

Date: 22 June 2025
Orbit: 581 x 4212 km, 40.6° (Epoch: 19 July)

Event Time Altitude Azimuth Distance (km) Brightness Sun altitude
Rises 19:01:15 0° 322° (NW) 7,684 ? -13.5°
Reaches altitude 10° 19:06:14 10° 326° (NW) 6,961 ? -14.7°
Maximum altitude 19:31:30 62° 44° (NE) 4,414 ? -20.4°
Enters shadow 19:45:40 29° 111° (ESE) 5,070 ? -23.6°
